星链-34848 (STARLINK-34848)

导读 | 豆包AI

STARLINK-34848是美国SpaceX星链星座的卫星,于2025年8月30日发射升空。星链项目旨在构建全球卫星互联网星座,为全球偏远地区、海洋航空等场景提供高速低延迟的宽带网络服务。该卫星加入星座后,将进一步拓展星链的全球覆盖范围,提升系统整体服务能力,延续SpaceX推进大规模低轨卫星组网的进程。

Basic Information
目录编号:
65402
目录名称:
STARLINK-34848
国际标识:
2025-191Z
轨道中心:
EARTH
卫星名称:
星链-34848
卫星全名:
星链-34848 (STARLINK-34848)
卫星状态:
在轨 (已飞行196 天)
发射日期:
2025-08-30 UTC
国别 :
美国 (US)
星等 :
--
Orbit Information
数据来源 国际轨道数据 AOE轨道数据
星历时间 2026-03-14T05:18:09+0800
16小时前
查看轨道信息
2026-03-11T10:00:00+0800
3天前
查看轨道信息
半长轴 6927.669km 6927.638km
偏心率 0.0002917 0.0002812
轨道倾角 97.602° 97.602°
近地点辐角 76.076° 77.165°
升交点赤经 305.704° 302.940°
平近点角 284.079° 212.391°
近地点 547.511km 547.552km
远地点 551.553km 551.45km
周期 95.640分钟 95.640分钟
每日圈数 15.056434 15.056534
Detailed Information
固有亮度:
5
最大亮度:
2.5
卫星平台:
Starlink V1.0
覆盖范围:
全球
运营商:
太空探索技术公司
运营商所在国:
美国
制造商(研发单位):
太空探索技术公司
制造商所在国:
美国
使用方式:
暂无
Satellite Introduction
Starlink 计划是 SpaceX 推出的全球卫星互联网项目,通过发射低轨道卫星,为全球尤其是偏远地区提供高速、低延迟的互联网服务。自 2019 年起,Starlink 已部署数千颗卫星,旨在缩小全球数字鸿沟,推动互联网普及。该项目还为军事、航空等行业提供通信支持,带来广泛经济效益。
2D Orbit Map
3D Orbit Map
Orbit Altitude Analysis Chart
Orbit Inclination Analysis Chart
Orbit Comprehensive Analysis Chart
View Comprehensive Chart